Location: Newark
(37.8333°N, 119.5000°W)
Time: 12:19:14
(UTC+00:00)

Tiros 1 despin weight - Pass Details

Date: 24 August 2019
Orbit: 594 x 642 km, 48.2° (Epoch: 17 September)

Event Time Altitude Azimuth Distance (km) Brightness Sun altitude
Rises 12:19:44 0° 304° (NW) 2,879 ? -12.2°
Reaches altitude 10° 12:22:02 10° 306° (NW) 1,980 ? -11.8°
Maximum altitude 12:26:36 75° 32° (NNE) 649 ? -11.0°
Drops below altitude 10° 12:31:12 10° 118° (ESE) 2,002 ? -10.2°
Sets 12:33:33 0° 120° (ESE) 2,914 ? -9.7°
